sat.trackr.live / text

‹ back to catalog

RESURS-P 4

NORAD 59371 · 2024-061A

PAYLOAD ACTIVE UNKNOWN

§ Identity

Operator
Country
CIS
Launch date
2024-03-31
Launch site
TYMSC
Launch vehicle
Mass (kg)
RCS (m²)

Purposes: earth_obs

External: N2YO · Heavens-Above · Gunter

§ Orbital elements

Epoch: 2026-05-25T04:58:35.918688Z

Period
94.00 min
Inclination
97.2738°
Eccentricity
0.0000663
Mean motion
15.31978964 rev/d
Perigee alt
469.5 km
Apogee alt
470.4 km
Semi-major
6,848.0 km
B*
9.6686e-5
RAAN
93.5107°
Arg perigee
85.5452°
Mean anomaly
274.5865°
Rev number
12,024

§ Raw data

RESURS-P 41 59371U 24061A   26145.20736017  .00002909  00000+0  96686-4 0  99902 59371  97.2738  93.5107 0000663  85.5452 274.5865 15.31978964120241

JSON: /api/v1/satellites/59371 · /tle

For live sub-satellite position, see the globe view (requires WebGL).

§ Visibility from observer

Set your observer location to see the next 7 days of passes ≥ 10°. The values pass through the URL so the page stays shareable.

No JS? Fill the form by hand. The geolocation button needs JavaScript.